User: anonymous   Login
Location: Hamburg
(53.5500°N, 10.0000°E)
Time: 16:13:03
(UTC+01:00)
Language:

Iridium 10 - Orbit

View from above orbital plane
View from above orbital plane
View from above satellite
View from above satellite

Ground track
Ground track

The orbit data is extracted from the following two-line orbital elements,

1 24839U 97030D   15062.30709750  .00000136  00000-0  41419-4 0  9993
2 24839 086.4002 339.9061 0002104 079.6775 071.0685 14.34219408927008
Epoch (UTC): 03 March 2015 07:22:13
Eccentricity: 0.0002104
inclination: 86.4002°
perigee height: 776 km
apogee height: 779 km
right ascension of ascending node: 339.9061°
argument of perigee: 79.6775°
revolutions per day: 14.34219408
mean anomaly at epoch: 71.0685°
orbit number at epoch: 92700

The dashed part of the orbit path shows where the satellite is in the earth's shadow,  

DLR